N148A KSYR-

Flight info

Callsign N148A
Flight time N/A
Altitude VFR/025
Route
Aircraft C172/L-VGD/C

Departure

Time 2026-04-29 18:35
Airport Syracuse Hancock International Airport (KSYR)

Arrival

Time N/A
Airport -
Time Latitude Longitude Altitude Speed Heading
2026-04-29 18:29 43.11044 -76.11237 417 ft 0 kts 87°
2026-04-29 18:31 43.11037 -76.11224 417 ft 7 kts 160°
2026-04-29 18:31 43.10985 -76.11363 415 ft 18 kts 259°
2026-04-29 18:31 43.10977 -76.11508 416 ft 27 kts 264°
2026-04-29 18:31 43.10970 -76.11765 413 ft 28 kts 265°
2026-04-29 18:32 43.10961 -76.12057 417 ft 32 kts 266°
2026-04-29 18:32 43.10943 -76.12592 423 ft 19 kts 254°
2026-04-29 18:32 43.10914 -76.12629 427 ft 0 kts 203°
2026-04-29 18:33 43.10880 -76.12622 426 ft 13 kts 146°
2026-04-29 18:33 43.10828 -76.12434 423 ft 29 kts 89°
2026-04-29 18:34 43.10846 -76.11994 414 ft 68 kts 91°
2026-04-29 18:34 43.10871 -76.11489 431 ft 90 kts 83°
2026-04-29 18:34 43.10969 -76.10300 675 ft 96 kts 88°
2026-04-29 18:34 43.11066 -76.09446 923 ft 95 kts 82°
2026-04-29 18:35 43.11362 -76.08545 1018 ft 111 kts 56°
2026-04-29 18:35 43.11641 -76.07565 1187 ft 110 kts 77°
2026-04-29 18:35 43.11839 -76.06564 1371 ft 109 kts 79°
2026-04-29 18:35 43.12030 -76.05548 1563 ft 111 kts 83°
2026-04-29 18:36 43.12233 -76.04528 1753 ft 113 kts 73°
2026-04-29 18:36 43.12580 -76.03540 1920 ft 116 kts 72°
2026-04-29 18:36 43.12914 -76.02556 2094 ft 114 kts 71°
2026-04-29 18:36 43.13249 -76.01577 2270 ft 112 kts 71°
2026-04-29 18:37 43.13572 -76.00622 2443 ft 110 kts 71°
2026-04-29 18:37 43.13894 -75.99669 2617 ft 110 kts 71°
2026-04-29 18:37 43.14213 -75.98724 2800 ft 108 kts 71°
2026-04-29 18:37 43.14527 -75.97792 2965 ft 108 kts 73°
2026-04-29 18:38 43.14853 -75.96816 3001 ft 119 kts 71°
2026-04-29 18:38 43.15205 -75.95759 3006 ft 126 kts 71°
2026-04-29 18:38 43.15572 -75.94655 3007 ft 129 kts 70°
2026-04-29 18:38 43.15953 -75.93519 3007 ft 131 kts 71°
2026-04-29 18:39 43.16337 -75.92383 3003 ft 132 kts 70°
2026-04-29 18:39 43.16722 -75.91236 3003 ft 132 kts 72°
2026-04-29 18:39 43.17105 -75.90094 3003 ft 132 kts 70°
2026-04-29 18:39 43.17482 -75.88970 3005 ft 132 kts 71°
2026-04-29 18:40 43.17864 -75.87832 3003 ft 131 kts 71°
2026-04-29 18:40 43.18248 -75.86687 3002 ft 132 kts 71°
2026-04-29 18:40 43.18630 -75.85547 3002 ft 131 kts 70°
2026-04-29 18:40 43.19013 -75.84403 3001 ft 133 kts 71°
2026-04-29 18:41 43.20162 -75.80973 2997 ft 131 kts 71°
2026-04-29 18:41 43.20540 -75.79842 2994 ft 130 kts 72°
2026-04-29 18:42 43.20922 -75.78707 2993 ft 131 kts 72°
2026-04-29 18:42 43.21297 -75.77581 2993 ft 130 kts 71°
2026-04-29 18:42 43.21675 -75.76451 2993 ft 131 kts 71°
2026-04-29 18:42 43.22052 -75.75318 2990 ft 130 kts 71°
2026-04-29 18:43 43.22430 -75.74188 2993 ft 130 kts 72°
2026-04-29 18:43 43.22802 -75.73072 3003 ft 130 kts 71°
2026-04-29 18:43 43.23182 -75.71918 2991 ft 134 kts 71°
2026-04-29 18:43 43.23567 -75.70767 2999 ft 132 kts 71°
2026-04-29 18:44 43.23954 -75.69621 2993 ft 132 kts 71°
2026-04-29 18:44 43.24336 -75.68468 2995 ft 132 kts 71°
2026-04-29 18:44 43.24718 -75.67317 2994 ft 133 kts 72°
2026-04-29 18:44 43.25101 -75.66168 2993 ft 133 kts 70°
2026-04-29 18:45 43.25484 -75.65019 2998 ft 132 kts 71°
2026-04-29 18:45 43.25870 -75.63859 2997 ft 133 kts 71°
2026-04-29 18:45 43.26250 -75.62716 2999 ft 132 kts 71°
2026-04-29 18:45 43.26638 -75.61545 2907 ft 137 kts 73°
2026-04-29 18:46 43.27033 -75.60341 2768 ft 142 kts 72°
2026-04-29 18:46 43.27443 -75.59104 2621 ft 141 kts 71°
2026-04-29 18:46 43.27852 -75.57876 2482 ft 141 kts 72°
2026-04-29 18:46 43.28260 -75.56646 2329 ft 142 kts 73°
2026-04-29 18:47 43.28668 -75.55417 2189 ft 142 kts 72°
2026-04-29 18:47 43.29074 -75.54186 2103 ft 135 kts 74°
2026-04-29 18:47 43.29456 -75.53059 2178 ft 128 kts 73°
2026-04-29 18:47 43.29820 -75.51950 2190 ft 130 kts 76°
2026-04-29 18:48 43.29953 -75.50746 2140 ft 126 kts 101°
2026-04-29 18:48 43.29681 -75.49642 2098 ft 119 kts 124°
2026-04-29 18:48 43.29229 -75.48766 2099 ft 102 kts 134°
2026-04-29 18:48 43.28738 -75.48126 1915 ft 98 kts 142°
2026-04-29 18:49 43.28238 -75.47492 1684 ft 98 kts 137°
2026-04-29 18:49 43.27782 -75.46783 1517 ft 97 kts 139°
2026-04-29 18:49 43.27352 -75.46196 1375 ft 78 kts 141°
2026-04-29 18:49 43.26961 -75.45676 1171 ft 73 kts 143°
2026-04-29 18:50 43.26614 -75.45211 1098 ft 70 kts 144°
2026-04-29 18:50 43.26261 -75.44712 1074 ft 74 kts 139°
2026-04-29 18:50 43.25908 -75.44204 1059 ft 72 kts 145°
2026-04-29 18:50 43.25553 -75.43704 918 ft 73 kts 146°
2026-04-29 18:51 43.25199 -75.43254 777 ft 69 kts 140°
2026-04-29 18:51 43.24874 -75.42783 630 ft 70 kts 145°
2026-04-29 18:51 43.24551 -75.42349 538 ft 61 kts 135°
2026-04-29 18:51 43.24299 -75.42000 508 ft 41 kts 137°
2026-04-29 18:52 43.24153 -75.41795 507 ft 22 kts 136°
2026-04-29 18:52 43.24044 -75.41667 506 ft 20 kts 148°
2026-04-29 18:52 43.23938 -75.41538 505 ft 18 kts 165°
2026-04-29 18:52 43.23858 -75.41581 506 ft 11 kts 215°
2026-04-29 18:53 43.23791 -75.41657 506 ft 14 kts 221°
2026-04-29 18:53 43.23733 -75.41750 506 ft 6 kts 284°
2026-04-29 18:53 43.23742 -75.41769 506 ft 0 kts 307°